EW3967 Weather Reports


time (UTC)temp
C
wind
direction
speed
KPH
gust
KPH
rain 1hr
cm
rain 24hr
cm
rain mn
cm
humidity
%
barometer
mb
20260902210112 37 152 3.2 17.7 0.00 0.00 0.00 36 1010.0
20260902204546 36 175 3.2 29.0 0.00 0.00 0.00 37 1010.3
20260902203044 36 122 9.7 25.7 0.00 0.00 0.00 37 1010.5
20260902201541 36 156 9.7 24.1 0.00 0.00 0.00 37 1010.6
20260902200039 36 158 3.2 24.1 0.00 0.00 0.00 40 1010.9
20260902194537 36 216 6.4 17.7 0.00 0.00 0.00 38 1011.1
20260902193034 36 120 6.4 11.3 0.00 0.00 0.00 38 1011.4
20260902191530 36 172 6.4 16.1 0.00 0.00 0.00 41 1011.6
20260902190036 36 96 6.4 16.1 0.00 0.00 0.00 39 1011.9
20260902184531 35 165 11.3 22.5 0.00 0.00 0.00 42 1012.1
20260902183023 35 150 4.8 22.5 0.00 0.00 0.00 44 1012.3
20260902181521 35 82 4.8 17.7 0.00 0.00 0.00 46 1012.7
20260902180021 35 157 8.0 20.9 0.00 0.00 0.00 45 1012.9
20260902174520 35 219 6.4 14.5 0.00 0.00 0.00 44 1013.1
20260902173016 34 158 4.8 16.1 0.00 0.00 0.00 46 1013.3
20260902171513 34 259 6.4 17.7 0.00 0.00 0.00 46 1013.5
20260902170009 34 141 3.2 16.1 0.00 0.00 0.00 46 1013.7
20260902164507 33 162 3.2 20.9 0.00 0.00 0.00 48 1013.8
20260902163000 33 173 4.8 19.3 0.00 0.00 0.00 48 1013.9
20260902161557 33 195 8.0 14.5 0.00 0.00 0.00 49 1014.0
20260902160055 33 200 3.2 16.1 0.00 0.00 0.00 50 1013.9
20260902154550 32 219 4.8 16.1 0.00 0.00 0.00 51 1013.9
20260902153046 32 182 6.4 17.7 0.00 0.00 0.00 53 1013.9
20260902151548 32 165 6.4 19.3 0.00 0.00 0.00 53 1014.1
20260902150040 31 231 9.7 19.3 0.00 0.00 0.00 55 1014.0
20260902144555 31 248 9.7 19.3 0.00 0.00 0.00 56 1014.1
20260902143036 30 184 8.0 17.7 0.00 0.00 0.00 58 1014.1
20260902141536 30 224 0.0 12.9 0.00 0.00 0.00 61 1014.1
20260902140029 29 243 3.2 14.5 0.00 0.00 0.00 62 1014.1
20260902134532 28 252 6.4 14.5 0.00 0.00 0.00 63 1014.1
20260902133025 27 221 3.2 14.5 0.00 0.00 0.00 66 1014.1
20260902131523 27 159 3.2 11.3 0.00 0.00 0.00 67 1014.2
20260902130030 26 184 1.6 8.0 0.00 0.00 0.00 69 1014.2
20260902124525 26 190 0.0 6.4 0.00 0.00 0.00 70 1014.0
20260902123019 25 168 3.2 8.0 0.00 0.00 0.00 72 1013.9
20260902121516 25 195 1.6 8.0 0.00 0.00 0.00 72 1013.6
20260902120015 25 160 1.6 8.0 0.00 0.00 0.00 72 1013.5
20260902114515 24 181 1.6 9.7 0.00 0.00 0.00 72 1013.4
20260902113011 24 201 3.2 8.0 0.00 0.00 0.00 71 1013.3
20260902111509 25 165 1.6 8.0 0.00 0.00 0.00 70 1013.2
20260902110008 25 154 1.6 8.0 0.00 0.00 0.00 69 1013.1
20260902104506 25 155 1.6 4.8 0.00 0.00 0.00 68 1013.2
20260902103004 25 160 1.6 8.0 0.00 0.00 0.00 68 1013.0
20260902101508 25 152 3.2 8.0 0.00 0.00 0.00 67 1012.9
20260902100110 25 158 3.2 8.0 0.00 0.00 0.00 66 1012.9
20260902094615 26 172 3.2 8.0 0.00 0.00 0.00 65 1012.7
20260902093055 26 159 3.2 8.0 0.00 0.00 0.00 64 1012.8
20260902091600 26 172 3.2 11.3 0.00 0.00 0.00 63 1012.7
20260902090052 26 149 3.2 9.7 0.00 0.00 0.00 62 1012.7
20260902084550 27 167 3.2 9.7 0.00 0.00 0.00 62 1012.7
20260902083054 27 174 4.8 12.9 0.00 0.00 0.00 61 1012.7
20260902081548 27 203 8.0 16.1 0.00 0.00 0.00 60 1012.6
20260902080108 27 140 4.8 12.9 0.00 0.00 0.00 60 1012.8
20260902074547 27 158 4.8 11.3 0.00 0.00 0.00 59 1012.8
20260902073048 27 204 4.8 11.3 0.00 0.00 0.00 59 1012.8
20260902071546 27 165 3.2 12.9 0.00 0.00 0.00 58 1012.8
20260902070045 27 170 3.2 8.0 0.00 0.00 0.00 59 1012.8
20260902064603 27 174 1.6 8.0 0.00 0.00 0.00 58 1012.7
20260902063046 27 170 1.6 9.7 0.00 0.00 0.00 57 1012.7
20260902061552 27 211 4.8 9.7 0.00 0.00 0.00 56 1012.6
20260902060038 27 145 3.2 12.9 0.00 0.00 0.00 56 1012.6
20260902054537 27 152 4.8 8.0 0.00 0.00 0.00 55 1012.5
20260902053035 28 161 3.2 9.7 0.00 0.00 0.00 55 1012.6
20260902051534 28 147 1.6 8.0 0.00 0.00 0.00 54 1012.6
20260902050032 28 155 3.2 8.0 0.00 0.00 0.00 54 1012.6
20260902044534 28 160 3.2 8.0 0.00 0.00 0.00 53 1012.6
20260902043034 28 158 1.6 8.0 0.00 0.00 0.00 52 1012.6
20260902041530 28 155 1.6 6.4 0.00 0.00 0.00 51 1012.6
20260902040029 29 162 1.6 6.4 0.00 0.00 0.00 50 1012.5
20260902034528 29 142 1.6 6.4 0.00 0.00 0.00 50 1012.5
20260902033045 29 187 3.2 8.0 0.00 0.00 0.00 49 1012.4
20260902031527 30 153 1.6 6.4 0.00 0.00 0.00 48 1012.3
20260902030027 30 171 3.2 9.7 0.00 0.00 0.00 47 1012.1
20260902024526 30 164 1.6 8.0 0.00 0.00 0.00 47 1011.8
20260902023025 30 184 3.2 8.0 0.00 0.00 0.00 46 1011.5
20260902021527 30 156 1.6 4.8 0.00 0.00 0.00 45 1011.2
20260902020031 30 159 0.0 3.2 0.00 0.00 0.00 44 1011.1
20260902014528 31 159 0.0 1.6 0.00 0.00 0.00 44 1010.9
20260902013023 31 159 0.0 1.6 0.00 0.00 0.00 42 1010.8
20260902011523 32 159 0.0 3.2 0.00 0.00 0.00 40 1010.7
20260902010022 33 158 0.0 4.8 0.00 0.00 0.00 39 1010.7
20260902004522 34 139 0.0 8.0 0.00 0.00 0.00 37 1010.6
20260902003021 35 156 6.4 14.5 0.00 0.00 0.00 36 1010.6
20260902001521 35 153 4.8 11.3 0.00 0.00 0.00 35 1010.7
20260902000019 35 146 3.2 12.9 0.00 0.00 0.00 35 1010.7
20260901234519 36 117 6.4 16.1 0.00 0.00 0.00 34 1010.8
20260901233027 36 160 6.4 14.5 0.00 0.00 0.00 33 1010.9
20260901231514 36 131 3.2 12.9 0.00 0.00 0.00 33 1010.9
20260901230010 37 148 6.4 17.7 0.00 0.00 0.00 30 1011.0
20260901224523 36 166 6.4 16.1 0.00 0.00 0.00 32 1011.0
20260901223006 35 115 4.8 11.3 0.00 0.00 0.00 32 1011.0
20260901221504 36 155 9.7 19.3 0.00 0.00 0.00 32 1010.9
20260901220004 36 122 8.0 17.7 0.00 0.00 0.00 31 1011.0
20260901214501 36 148 0.0 8.0 0.00 0.00 0.00 31 1011.1
20260901213100 36 169 6.4 16.1 0.00 0.00 0.00 30 1011.2
20260901211559 36 131 6.4 16.1 0.00 0.00 0.00 30 1011.3